Homestead AFB, FL

11:34 PM EDT on June 27, 2017 (GMT -0400)
Dade County-Homestead Regional

Weather History for KHST - November, 2013

Change the Weather History Date:

Tuesday, November 26, 2013

  Actual Average Record
Temperature  
Mean Temperature 76 °F -  
Max Temperature 81 °F 80 °F 87 °F (1947)
Min Temperature 71 °F 59 °F 38 °F (1950)
Cooling Degree Days 11    
Growing Degree Days 26 (Base 50)    
Moisture  
Dew Point 72 °F    
Average Humidity 88    
Maximum Humidity 94    
Minimum Humidity 78    
Precipitation  
Precipitation 0.14 in - - ()
Sea Level Pressure  
Sea Level Pressure 29.96 in    
Wind  
Wind Speed 13 mph (SE)    
Max Wind Speed 21 mph    
Max Gust Speed 33 mph    
Visibility 9 miles    
Events Rain , Thunderstorm    
Averages and records for this station are not official NWS values.
T = Trace of Precipitation, MM = Missing Value Source: NWS Daily Summary

Daily Weather History Graph

Daily Weather History Graph

Search for Another Location

Airport or City:

Trip Planner

Search our weather history database for the weather conditions in past years. The results will help you decide how hot, cold, wet, or windy it might be!

Date:

Astronomy

Nov. 26, 2013 Rise Set
Actual Time 6:47 AM EST 5:30 PM EST
Civil Twilight 6:22 AM EST 5:55 PM EST
Nautical Twilight 5:54 AM EST 6:23 PM EST
Astronomical Twilight 5:26 AM EST 6:51 PM EST
Moon 12:27 AM EST (11/26) 1:01 PM EST (11/26)
Length of Visible Light 11h 32m
Length of Day
10h 43m
Last Quarter, 41% of the Moon is Illuminated
Nov 26
Last Quarter
Dec 2
New
Dec 9
First Quarter
Dec 17
Full
Dec 25
Last Quarter

Hourly Weather History & Observations

Time (EST) Temp. Heat Index Dew Point Humidity Pressure Visibility Wind Dir Wind Speed Gust Speed Precip Events Conditions
12:11 AM 71.6 °F - 69.8 °F 94% 30.04 in 10.0 mi East 12.7 mph - N/A   Scattered Clouds
12:26 AM 71.6 °F - 69.8 °F 94% 30.03 in 7.0 mi East 18.4 mph 24.2 mph N/A Rain Light Rain
12:31 AM 71.6 °F - 69.8 °F 94% 30.04 in 4.0 mi East 15.0 mph 24.2 mph N/A Rain Light Rain
12:36 AM 71.6 °F - 69.8 °F 94% 30.03 in 5.0 mi East 16.1 mph 24.2 mph N/A Rain Light Rain
12:40 AM 71.6 °F - 69.8 °F 94% 30.03 in 10.0 mi East 15.0 mph - N/A   Partly Cloudy
12:58 AM 73.2 °F - 70.5 °F 91% 30.04 in 10.0 mi East 12.7 mph 20.7 mph 0.04 in   Partly Cloudy
1:18 AM 73.4 °F - 69.8 °F 88% 30.02 in 7.0 mi East 12.7 mph 23.0 mph N/A   Scattered Clouds
1:19 AM 73.4 °F - 69.8 °F 88% 30.03 in 6.0 mi East 15.0 mph 23.0 mph N/A Rain Light Rain
1:24 AM 71.6 °F - 68.0 °F 88% 30.01 in 2.5 mi East 20.7 mph 25.3 mph N/A Rain Heavy Rain
1:34 AM 73.4 °F - 69.8 °F 88% 30.02 in 8.0 mi East 12.7 mph - N/A Rain Light Rain
1:38 AM 73.4 °F - 69.8 °F 88% 30.02 in 10.0 mi East 13.8 mph - N/A   Scattered Clouds
1:58 AM 74.3 °F - 70.7 °F 88% 30.02 in 10.0 mi East 16.1 mph 20.7 mph 0.07 in   Clear
2:33 AM 75.2 °F - 71.6 °F 89% 29.99 in 9.0 mi East 12.7 mph - N/A   Partly Cloudy
2:34 AM 75.2 °F - 71.6 °F 89% 29.99 in 7.0 mi East 12.7 mph - N/A   Light Drizzle
2:54 AM 75.2 °F - 69.8 °F 83% 29.99 in 10.0 mi ESE 13.8 mph 23.0 mph N/A   Partly Cloudy
2:58 AM 74.8 °F - 70.7 °F 87% 30.00 in 10.0 mi ESE 15.0 mph 23.0 mph 0.01 in   Partly Cloudy
3:38 AM 75.2 °F - 69.8 °F 83% 29.99 in 10.0 mi ESE 10.4 mph 24.2 mph N/A   Light Drizzle
3:47 AM 75.2 °F - 69.8 °F 83% 29.99 in 10.0 mi ESE 16.1 mph 23.0 mph N/A   Partly Cloudy
3:58 AM 75.2 °F - 70.3 °F 85% 30.00 in 10.0 mi ESE 13.8 mph 21.9 mph 0.00 in   Clear
4:58 AM 75.7 °F - 70.9 °F 85% 30.00 in 10.0 mi ESE 10.4 mph - N/A   Partly Cloudy
5:58 AM 75.9 °F - 70.9 °F 84% 30.01 in 10.0 mi ESE 10.4 mph - N/A   Clear
6:58 AM 75.7 °F - 71.2 °F 86% 30.01 in 10.0 mi ESE 11.5 mph - N/A   Scattered Clouds
7:58 AM 76.6 °F - 71.4 °F 84% 30.01 in 10.0 mi ESE 12.7 mph - N/A   Partly Cloudy
8:58 AM 78.1 °F - 72.7 °F 83% 30.01 in 10.0 mi SE 10.4 mph 20.7 mph N/A   Clear
9:58 AM 80.1 °F 84.4 °F 73.2 °F 80% 30.00 in 10.0 mi SE 13.8 mph 23.0 mph N/A   Clear
10:58 AM 79.7 °F - 73.6 °F 81% 29.99 in 10.0 mi SE 13.8 mph - N/A   Partly Cloudy
11:38 AM 80.6 °F 85.4 °F 73.4 °F 79% 29.96 in 10.0 mi SE 16.1 mph 19.6 mph N/A   Mostly Cloudy
11:43 AM 80.6 °F 85.4 °F 73.4 °F 79% 29.96 in 10.0 mi SE 16.1 mph - N/A   Scattered Clouds
11:58 AM 81.1 °F 86.4 °F 73.6 °F 78% 29.96 in 10.0 mi SSE 15.0 mph 24.2 mph N/A   Partly Cloudy
12:58 PM 81.3 °F 86.8 °F 73.8 °F 78% 29.93 in 10.0 mi SE 13.8 mph 23.0 mph N/A   Scattered Clouds
1:58 PM 81.5 °F 87.2 °F 73.9 °F 78% 29.90 in 10.0 mi SSE 15.0 mph - N/A   Scattered Clouds
2:50 PM 78.8 °F - 75.2 °F 89% 29.88 in 5.0 mi SSE 12.7 mph 19.6 mph N/A   Light Drizzle
2:58 PM 78.4 °F - 74.7 °F 88% 29.89 in 8.0 mi SSE 10.4 mph - 0.02 in   Light Drizzle
3:02 PM 78.8 °F - 75.2 °F 89% 29.88 in 10.0 mi SSE 8.1 mph 18.4 mph N/A   Partly Cloudy
3:58 PM 80.2 °F 85.0 °F 74.3 °F 82% 29.88 in 10.0 mi South 12.7 mph - 0.00 in   Partly Cloudy
4:58 PM 79.2 °F - 74.5 °F 86% 29.87 in 10.0 mi South 10.4 mph - N/A   Clear
5:58 PM 77.7 °F - 73.8 °F 88% 29.88 in 10.0 mi South 8.1 mph - N/A   Clear
6:58 PM 77.0 °F - 73.9 °F 90% 29.88 in 10.0 mi South 5.8 mph - N/A   Clear
7:58 PM 76.8 °F - 74.1 °F 91% 29.89 in 10.0 mi South 5.8 mph - N/A   Clear
8:58 PM 76.3 °F - 74.1 °F 93% 29.90 in 10.0 mi South 5.8 mph - N/A   Clear
9:58 PM 75.9 °F - 74.1 °F 94% 29.88 in 10.0 mi SSE 4.6 mph - N/A   Clear
10:58 PM 77.2 °F - 75.0 °F 93% 29.89 in 10.0 mi South 5.8 mph - N/A Thunderstorm Clear
11:01 PM 77.0 °F - 75.2 °F 94% 29.88 in 10.0 mi South 5.8 mph - N/A Rain , Thunderstorm Light Rain
11:11 PM 77.0 °F - 75.2 °F 94% 29.87 in 10.0 mi South 4.6 mph - N/A Thunderstorm Scattered Clouds
11:16 PM 77.0 °F - 75.2 °F 94% 29.88 in 10.0 mi South 6.9 mph - N/A Thunderstorm Thunderstorm
11:29 PM 77.0 °F - 75.2 °F 94% 29.87 in 10.0 mi South 9.2 mph - N/A Rain , Thunderstorm Light Thunderstorms and Rain
11:33 PM 77.0 °F - 75.2 °F 94% 29.87 in 10.0 mi SSW 10.4 mph - N/A Rain , Thunderstorm Light Thunderstorms and Rain
11:58 PM 71.6 °F - 69.8 °F 94% 29.89 in 2.5 mi WSW 20.7 mph 33.4 mph N/A Rain , Thunderstorm Heavy Thunderstorms and Rain